Miscellaneous Local Product
Issued by NWS Hastings, NE

Home | Current Version | Previous Version | Graphics & Text | Print | Product List | Glossary On
Versions: 1 2 3 4 5 6 7 8 9 10 11 12 13 14 15 16 17 18 19 20 21 22 23 24 25 26 27 28 29 30 31 32 33 34 35 36 37 38 39 40 41 42 43 44 45 46 47 48 49 50
000
AXUS43 KGID 270902
MISGRI

GID CWA HOURLY WEATHER ROUNDUP
NATIONAL WEATHER SERVICE HASTINGS NE
400 AM CDT WED MAY 27 2015

NOTE: "FAIR" INDICATES FEW OR NO CLOUDS BELOW 12,000 FEET WITH NO
SIGNIFICANT WEATHER AND/OR OBSTRUCTIONS TO VISIBILITY.

...SOUTH CENTRAL NEBRASKA...

CITY           SKY/WX    TMP DP  RH WIND       PRES   REMARKS
GRAND ISLAND   CLEAR     52  47  83 W7        30.02S
HASTINGS       PTCLDY    54  47  77 SW3       30.03R
KEARNEY        MOCLDY    52  46  82 W3        30.04R
ORD            CLEAR     51  47  86 CALM      30.01S
YORK           CLEAR     52  48  87 W6        30.02R
AURORA         CLEAR     51  49  90 W7        30.01S
LEXINGTON      CLEAR     49  48  94 W3        30.05S
HOLDREGE       PTCLDY    54  47  78 SW5       30.05R
HEBRON         CLEAR     50  47  90 CALM      30.03S

...NEBRASKA PANHANDLE...

CITY           SKY/WX    TMP DP  RH WIND       PRES   REMARKS
CHADRON        CLOUDY    56  52  86 S7        30.00R
ALLIANCE       CLOUDY    54  50  86 W5        30.04S
SCOTTSBLUFF    CLOUDY    53  51  93 SE7       30.03S
SIDNEY         MOCLDY    52  49  89 SE8       30.06S

...WESTERN AND NORTH CENTRAL NEBRASKA...

CITY           SKY/WX    TMP DP  RH WIND       PRES   REMARKS
VALENTINE      CLEAR     48  46  93 CALM      30.02S
AINSWORTH      CLEAR     52  47  84 SW7       30.03R
ONEILL         CLEAR     54  50  88 SW5       30.00R
BROKEN BOW     PTCLDY    51  47  86 CALM      30.04R
IMPERIAL       MOCLDY    53  49  86 S5        30.06S
NORTH PLATTE   PTCLDY    51  47  86 CALM      30.05F
MCCOOK         CLEAR     53  47  79 CALM      30.05S

...EASTERN NEBRASKA...

CITY           SKY/WX    TMP DP  RH WIND       PRES   REMARKS
NORFOLK        CLEAR     56  50  80 W8        29.98R
SO SIOUX CITY  CLEAR     51  49  92 S3        29.95R
TEKAMAH        CLEAR     56  52  86 W6        29.95R
COLUMBUS         N/A    N/A N/A N/A MISG        N/A
ALBION         CLEAR     55  48  76 NW5       30.00R
OMAHA EPPLEY   CLEAR     54  53  97 SE5       29.97R
OFFUTT AFB     CLEAR     52  50  93 W3        29.97R
MILLARD        CLEAR     53  52  96 CALM      29.98R FOG
LINCOLN        CLEAR     58  50  75 W3        30.00R
NEBRASKA CITY  CLEAR     56  51  81 W9        29.99R
BEATRICE       CLEAR     53  51  94 CALM      30.01S
FALLS CITY     CLEAR     56  53  90 NW7       29.98R

...NORTHERN KANSAS...

CITY           SKY/WX    TMP DP  RH WIND       PRES   REMARKS
GOODLAND       CLOUDY    55  51  86 S13       30.08S
HILL CITY      CLEAR     50  47  89 CALM      30.05R
NORTON         SUNNY     48  45  87 CALM      30.04S
PHILLIPSBURG   CLEAR     52  52 100 W3        30.05S
SMITH CENTER   CLEAR     48  46  93 N5        30.04F
HAYS           PTCLDY    52  45  76 CALM      30.04S
RUSSELL        PTCLDY    54  51  90 S5        30.03S
CONCORDIA      CLEAR     55  51  86 W7        30.02F
SALINA         PTCLDY    60  55  83 N6        30.03R
TOPEKA         PTCLDY    61  57  87 W3        30.00R



USA.gov is the U.S. government's official web portal to all federal, state and local government web resources and services.